This is the latest recevied weather packets stored in our database for station/object N6WDO. If no packets are shown the sender has not sent any weather packets the latest 10 day(s).
| Time | Temp. | Humidity | Pressure | Rain* | Wind** | Luminosity | Snow |
|---|---|---|---|---|---|---|---|
| 1777554293 | 8.89° C | 83% | 1015.6 hPa | 0 mm | - | 3 W/m² | - |
| 1777553080 | 9.44° C | 83% | 1015.6 hPa | 0 mm | - | 0 W/m² | - |
| 1777552172 | 8.89° C | 88% | 1015.8 hPa | 0 mm | - | 0 W/m² | - |
| 1777551869 | 8.89° C | 88% | 1015.6 hPa | 0 mm | - | 0 W/m² | - |
| 1777551567 | 8.89° C | 88% | 1015.7 hPa | 0 mm | - | 0 W/m² | - |
| 1777551264 | 8.89° C | 88% | 1015.6 hPa | 0 mm | - | 0 W/m² | - |
| 1777550657 | 9.44° C | 84% | 1015.8 hPa | 0 mm | - | 0 W/m² | - |
| 1777548532 | 9.44° C | 85% | 1015.7 hPa | 0 mm | - | 0 W/m² | - |
| 1777548228 | 8.89° C | 86% | 1015.7 hPa | 0 mm | - | 0 W/m² | - |
| 1777547318 | 9.44° C | 86% | 1015.7 hPa | 0 mm | - | 0 W/m² | - |
| 1777546713 | 9.44° C | 86% | 1015.9 hPa | 0 mm | - | 0 W/m² | - |
| 1777544894 | 10° C | 84% | 1016 hPa | 0 mm | - | 0 W/m² | - |
| 1777544590 | 10° C | 85% | 1016 hPa | 0 mm | - | 0 W/m² | - |
| 1777544286 | 10° C | 85% | 1015.8 hPa | 0 mm | - | 0 W/m² | - |
| 1777543983 | 10° C | 85% | 1015.8 hPa | 0 mm | - | 0 W/m² | - |
| 1777543071 | 9.44° C | 85% | 1015.9 hPa | 0 mm | - | 0 W/m² | - |
| 1777542465 | 10° C | 84% | 1016.1 hPa | 0 mm | - | 0 W/m² | - |
| 1777541858 | 10° C | 84% | 1016 hPa | 0 mm | - | 0 W/m² | - |
| 1777541555 | 10° C | 85% | 1015.9 hPa | 0 mm | - | 0 W/m² | - |
| 1777541252 | 10° C | 85% | 1016.1 hPa | 0 mm | - | 0 W/m² | - |
| 1777540948 | 10° C | 84% | 1015.9 hPa | 0 mm | - | 0 W/m² | - |
| 1777540646 | 10° C | 84% | 1016.2 hPa | 0 mm | - | 0 W/m² | - |
| 1777540343 | 10.56° C | 83% | 1016.3 hPa | 0 mm | - | 0 W/m² | - |
| 1777540039 | 10.56° C | 82% | 1016.1 hPa | 0 mm | - | 0 W/m² | - |
| 1777539431 | 10.56° C | 84% | 1016.3 hPa | 0 mm | - | 0 W/m² | - |
* Rain latest hour (hover to see other rain measurements)
** Current wind speed in m/s (hover to see current wind gust speed)